Preview of NWS' New Version of Forecast
This preview is not operational and should not be used for support decisions.

Regional Weather Roundup (RWR)

Issued by National Weather Service (NWS)

                            
000
ASUS42 KTBW 181916
RWRFL 
FLORIDA REGIONAL WEATHER ROUNDUP
NATIONAL WEATHER SERVICE TAMPA BAY RUSKIN FL
300 PM EDT THU APR 18 2019

NOTE: "FAIR" INDICATES FEW OR NO CLOUDS BELOW 12,000 FEET WITH NO
SIGNIFICANT WEATHER AND/OR OBSTRUCTIONS TO VISIBILITY.

FLZ001>010-012>015-112-114-115-182000-
PANHANDLE FLORIDA
  
CITY           SKY/WX    TMP DP  RH WIND       PRES   REMARKS
PENSACOLA      CLOUDY    75  70  84 SE17      29.85F                  
PENSACOLA NAS  CLOUDY    75  70  84 E18       29.84F                  
MILTON NAS     PTSUNNY   77  66  68 SE17      29.85F                  
CRESTVIEW      PTSUNNY   80  63  55 SE9G18    29.89F                  
DUKE FIELD     FAIR      80  64  57 S15G24    29.88F                  
VALPARAISO     PTSUNNY   77  66  69 SE22      29.87F                  
MARY ESTHER    CLOUDY    76  67  71 SE16G23   29.86F                  
PANAMA CITY    FAIR      80  65  59 SE15G25   29.91F                  
TYNDALL AFB    PTSUNNY   78  67  66 S22G29    29.91S                  
APALACHICOLA   FAIR      77  66  68 SE17G24   29.94S                  

STATION/POSITION SKY/WX   TEMP    WIND        PRES    WAVE   SWELL
                          AIR SEA DIR/SP/G            HT/PER HT/PER
                          (F)     (DEG/KT/KT) (MB)    (FT/S) (FT/S)
30.1N   87.6W                                 1010.3F   4/ 6   3/ 6
29.2N   88.2W                     150/ 17/ 21 1008.8F   6/ 6   2/12
PANAMA CITY BEAC           73 73  130/ 13/ 16 1013.5F
TOWER C          NOT AVBL

$$
FLZ011-016>038-118-127-128-134-139-239-182000-
NORTH FLORIDA
  
CITY           SKY/WX    TMP DP  RH WIND       PRES   REMARKS
MARIANNA       FAIR      84  60  44 S12       29.88F                  
TALLAHASSEE    FAIR      81  63  54 SE16      29.93F                  
PERRY          FAIR      83  61  47 SW13G20   29.95F                  
LIVE OAK       SUNNY     84  59  42 VRB6      29.94F                  
CROSS CITY     FAIR      84  56  38 S15       29.96F                  
LAKE CITY      FAIR      81  59  47 S8        29.96F                  
GAINESVILLE    FAIR      87  60  40 SW12G17   29.99F                  
PALATKA        FAIR      86  59  39 S13G20    29.96F                  
MAYPORT NAS    FAIR      80  67  64 SE14      29.98F                  
JACKSONVILLE   PTSUNNY   85  58  39 S10       29.96F                  
JAX NAS        PTSUNNY   84  57  39 S12       29.97F                  
JAX CECIL      PTSUNNY   86  61  42 S14       29.96F                  
FERNANDINA BEA PTSUNNY   76  66  71 SE12      29.98F                  
ST AUGUSTINE   FAIR      80  68  66 SE17      29.98F                  
PALM COAST     PTSUNNY   82  66  57 SE14      29.97F                  

STATION/POSITION SKY/WX   TEMP    WIND        PRES    WAVE   SWELL
                          AIR SEA DIR/SP/G            HT/PER HT/PER
                          (F)     (DEG/KT/KT) (MB)    (FT/S) (FT/S)
SHELL POINT      NOT AVBL
KEATON BEACH               75     160/ 14/ 16 1014.7F
CEDAR KEY                  76     140/  5/  6 1014.6F
FERNANDINA                 79 73  120/  6/ 11 1016.0F
30.7N   81.3W                 72                N/A     2/ 8
MAYPORT                    77 71  130/ 12/ 16 1015.3F
31.4N   80.9W              71 69  160/  4/  6 1016.2F   2/ 8   2/ 8
ST AUGUSTINE               74 74  140/ 16/ 18 1015.1F

$$
FLZ040-043>046-052-053-057-058-063-144-182000-
INTERIOR CENTRAL FLORIDA
  
CITY           SKY/WX    TMP DP  RH WIND       PRES   REMARKS
OCALA          FAIR      86  61  42 S10G17    29.97F                  
LEESBURG       FAIR      85  61  44 S8        29.98F                  
SANFORD        FAIR      89  63  41 SW15      29.96F                  
ORLANDO EXEC   FAIR      88  60  38 S10       29.97F                  
ORLANDO INTL   FAIR      89  61  38 S12G20    29.96F                  
KISSIMMEE      PTSUNNY   86  64  47 SE7       29.97F                  
WINTER HAVEN   PTSUNNY   88  63  43 SE10      29.97F                  
LAKELAND       MOSUNNY   88  63  42 SW8       29.97F                  
BARTOW         PTSUNNY   90  64  43 S13       29.96F                  
SEBRING        FAIR      87  68  53 SE17      29.97F                  
OKEECHOBEE     PTSUNNY   86  68  54 S12       29.97F                  

$$
FLZ041-047-054-059-064-141-147-182000-
EAST CENTRAL FLORIDA
  
CITY           SKY/WX    TMP DP  RH WIND       PRES   REMARKS
ORMOND BEACH   PTSUNNY   82  68  61 SE13G18   29.98F                  
DAYTONA BEACH  PTSUNNY   81  70  69 E9        29.97F                  
DELAND         FAIR      88  59  37 SW14G20   29.97F                  
NEW SMYRNA BEA MOSUNNY   82  68  61 SE15      29.99F                  
JFK SPACE CTR  PTSUNNY   83  71  65 S16       29.97F                  
TITUSVILLE     PTSUNNY   84  70  61 SE17G24   29.99F                  
PATRICK AFB    FAIR      83  73  72 SE16      29.98                   
MELBOURNE      PTSUNNY   83  71  67 SE20G30   29.98F                  
VERO BEACH     FAIR      85  69  58 SE24G37   29.99F                  
FT PIERCE      PTSUNNY   85  69  58 SE23G29   29.99F                  

STATION/POSITION SKY/WX   TEMP    WIND        PRES    WAVE   SWELL
                          AIR SEA DIR/SP/G            HT/PER HT/PER
                          (F)     (DEG/KT/KT) (MB)    (FT/S) (FT/S)
28.5N   80.2W              78     150/ 14/ 17 1016.4F   4/ 9   2/ 9
28.9N   78.5W              76 77  130/ 17/ 21 1018.0F   4/ 8   2/ 8
TRIDENT PIER               82 78  120/  9/ 13 1017.0F
28.4N   80.5W                 78                N/A     3/ 4
27.5N   80.2W                 77                N/A     4/ 4

$$
FLZ050-056-061-142-242-148-248-149-249-151-251-155-255-
160-260-182000-
WEST CENTRAL FLORIDA
  
CITY           SKY/WX    TMP DP  RH WIND       PRES   REMARKS
CRYSTAL RIVER  FAIR      86  59  39 W9        29.96F                  
INVERNESS      FAIR      88  61  40 S7        29.96F                  
BROOKSVILLE    FAIR      88  63  43 S13       29.96F                  
CLEARWATER AIR FAIR      84  64  51 S9G20     29.94F                  
ST PETE CLEARW FAIR      87  62  43 S17       29.94F                  
TAMPA INTL     FAIR      86  64  47 S10G17    29.95F                  
TAMPA EXEC     FAIR      88  64  45 SW10      29.95F                  
PLANT CITY     FAIR      90  61  37 S7G17     29.97F                  
PETER O KNIGHT CLOUDY    88  66  48 SW9       29.95F                  
ST PETERSBURG  FAIR      82  66  58 SW12      29.93F                  
SARASOTA       FAIR      87  70  56 SW14      29.94F                  
VENICE         FAIR      86  73  66 S14       29.96F                  

STATION/POSITION SKY/WX   TEMP    WIND        PRES    WAVE   SWELL
                          AIR SEA DIR/SP/G            HT/PER HT/PER
                          (F)     (DEG/KT/KT) (MB)    (FT/S) (FT/S)
27.3N   84.2W                 76                N/A     4/ 5
CLEARWATER BEACH           80 78  180/ 15/ 17 1014.4F
MIDDLE TAMPA BAY           82     220/ 10/ 12 1014.4F
VENICE                     79 78  190/ 13/ 14 1014.2F

$$
FLZ066-069-070-075>078-162-262-165-265-182000-
SOUTHWEST FLORIDA AND KEYS
  
CITY           SKY/WX    TMP DP  RH WIND       PRES   REMARKS
PUNTA GORDA    FAIR      90  64  42 S12       29.96F                  
FT MYERS       FAIR      88  67  49 SW9       29.93F                  
SOUTHWEST INTL FAIR      88  67  49 SW8       29.94F                  
NAPLES         CLOUDY    87  74  64 S17G24    29.94F HX  95           
MARCO ISLAND   CLOUDY    84  72  67 SE13G18   29.96                   
IMMOKALEE      FAIR      91  68  46 SE15      29.92F HX  95           
MARATHON       FAIR      88  73  61 SE10G18   29.94F HX  95           
KEY WEST NAS   FAIR      87  71  58 SE16      29.94F                  
KEY WEST INTL  FAIR      84  72  67 SE15      29.94F                  

STATION/POSITION SKY/WX   TEMP    WIND        PRES    WAVE   SWELL
                          AIR SEA DIR/SP/G            HT/PER HT/PER
                          (F)     (DEG/KT/KT) (MB)    (FT/S) (FT/S)
NAPLES                     81 81  160/ 15/ 18 1014.1F
DRY TORTUGAS               80     140/ 14/ 15 1013.5F
SAND KEY                   79                 1013.7F
SOMBRERO KEY               80                 1013.6F

$$
FLZ067-068-071>074-168-172>174-182000-
SOUTHEAST FLORIDA 
  
CITY           SKY/WX    TMP DP  RH WIND       PRES   REMARKS
W PALM BEACH   PTSUNNY   84  71  65 SE20G26   29.99F                  
BOCA RATON     PTSUNNY   88  72  58 SE14G21   29.99F                  
FT LAUDER-EXEC PTSUNNY   87  69  54 SE18      29.98F                  
FT LAUDERDALE  FAIR      85  71  63 SE22      29.98F                  
POMPANO BEACH  FAIR      87  71  58 SE20      29.99F                  
PEMBROKE PINES FAIR      85  70  60 SE17      29.99F                  
OPA LOCKA      FAIR      86  69  56 SE17G24   29.98F                  
MIAMI          PTSUNNY   86  71  60 SE20      29.98F                  
WEST KENDALL   PTSUNNY   86  71  60 SE18G24   29.97F                  
HOMESTEAD      CLOUDY    84  72  65 E16       29.97F                  

STATION/POSITION SKY/WX   TEMP    WIND        PRES    WAVE   SWELL
                          AIR SEA DIR/SP/G            HT/PER HT/PER
                          (F)     (DEG/KT/KT) (MB)    (FT/S) (FT/S)
PORT EVERGLADES            81     140/ 12/ 16 1015.6F
VIRGINIA KEY               80 81  120/ 12/ 16 1014.9F
LAKE WORTH                 79 80  140/ 15/ 17 1016.8F
SETTLEMENT POINT           80     150/ 15/ 18 1016.1F

$$